This demonstration page uses our WeatherBlox Daily Observations layout. Learn more.

Left ArrowRight Arrow

Hourly Observations for March 15, 2022

Temp ( °F °C ) Dew Point ( °F °C ) Humidity (%) Winds ( mph kmh ) Pressure ( in mb ) Visibility ( mi km ) Precip ( " mm )
12:56 am 00:56 Clear 30 -1.1 25 -3.9 82 82 NW 7 11 30.33 1027 10 16 0.00 0.00
1:56 am 01:56 Clear 27 -2.8 24 -4.4 89 89 Calm 30.31 1026 10 16 0.00 0.00
2:56 am 02:56 Clear 28 -2.2 25 -3.9 88 88 W 5 7 30.30 1026 10 16 0.00 0.00
3:56 am 03:56 Clear 25 -3.9 23 -5 92 92 W 6 9 30.29 1026 10 16 0.00 0.00
4:56 am 04:56 Clear 22 -5.6 20 -6.7 92 92 W 3 6 30.28 1026 10 16 0.00 0.00
5:56 am 05:56 Clear 21 -6.1 20 -6.7 96 96 WNW 8 13 30.29 1026 10 16 0.00 0.00
6:56 am 06:56 Clear 21 -6.1 18 -7.8 88 88 Calm 30.29 1026 10 16 0.00 0.00
7:56 am 07:56 Sunny 24 -4.4 22 -5.6 91 91 W 5 7 30.30 1026 10 16 0.00 0.00
8:56 am 08:56 Sunny 31 -0.6 28 -2.2 89 89 WSW 6 9 30.29 1026 10 16 0.00 0.00
9:56 am 09:56 Sunny 38 3.3 29 -1.7 70 70 WSW 9 15 30.28 1025 10 16 0.00 0.00
10:56 am 10:56 Sunny 45 7.2 31 -0.6 58 58 SW 12 19 30.26 1025 10 16 0.00 0.00
11:56 am 11:56 undefined 52 11.1 30 -1.1 43 43 WSW 12 19 30.23 1024 10 16 0.00 0.00
12:56 pm 12:56 Sunny 57 13.9 28 -2.2 33 33 SW 15 24 30.21 1023 N/A 0.02 0.51
1:10 pm 13:10 Mostly Sunny 57 14 28 -2 33 33 SSW 13 20 30.14 1021 10 16 0.00 0.00
1:56 pm 13:56 Sunny 60 15.6 27 -2.8 28 28 SSW 15 24 30.17 1022 10 16 0.00 0.00
2:56 pm 14:56 Sunny 64 17.8 25 -3.9 23 23 SSW 17 28 30.11 1020 10 16 0.00 0.00
3:56 pm 15:56 Sunny 64 17.8 24 -4.4 22 22 S 17 28 30.07 1018 10 16 0.00 0.00
4:56 pm 16:56 Sunny 64 17.8 23 -5 21 21 SSW 21 33 30.05 1018 10 16 0.00 0.00
5:56 pm 17:56 Sunny 64 17.8 24 -4.4 22 22 SSW 21 33 30.02 1017 10 16 0.00 0.00
6:56 pm 18:56 Sunny 62 16.7 23 -5 22 22 S 16 26 30.01 1016 10 16 0.00 0.00
7:56 pm 19:56 Clear 55 12.8 23 -5 29 29 S 14 22 29.99 1016 10 16 0.00 0.00
8:56 pm 20:56 Clear 51 10.6 24 -4.4 35 35 S 15 24 29.99 1016 10 16 0.00 0.00
9:56 pm 21:56 Clear 49 9.4 24 -4.4 38 38 S 15 24 29.98 1015 10 16 0.00 0.00
10:56 pm 22:56 Clear 50 10 24 -4.4 36 36 S 17 28 29.95 1014 10 16 0.00 0.00
11:56 pm 23:56 Clear 46 7.8 25 -3.9 44 44 S 16 26 29.95 1014 10 16 0.00 0.00

Powered by AerisWeather